User: anonymous   Login
Location: Bailen
(14.1842°N, 120.7958°E)
Time: 04:38:07
(UTC+00:00)
Language:

Palapa B4 Rocket - Orbit

View from above orbital plane
View from above orbital plane
View from above satellite
View from above satellite

Ground track
Ground track

The orbit is defined by the following mean orbital elements,

1 21965U          26069.81286598 +.00000000 +00000-0 +64019-3 0 00009
2 21965  19.6740 265.1587 1357284 114.1773 260.6278 12.22377084    07
Epoch (UTC): 10 March 2026 19:30:31
Eccentricity: 0.1357284
inclination: 19.6740°
perigee height: 502 km
apogee height: 2663 km
right ascension of ascending node: 265.1587°
argument of perigee: 114.1773°
revolutions per day: 12.22377084
mean anomaly at epoch: 260.6278°

The dashed part of the orbit path shows where the satellite is in the earth's shadow,  

DLR